Weather in Niagara Falls

United States     43°05′43″N   79°03′20″W
temp.,
°C
wind,
m/s
gust,
m/s
humid.,
%
clouds,
%
prec.,
mm/h
press.,
hPa
HPBL,
m
18 september, sat
sat1823:00+21ssw24840 0.1 1018105
02:00+20wsw23910 1.3 101868
05:00+18nw25933 0.0 1018128
08:00+18n378992 0.1 1020381
11:00+23n235094 0.0 1020720
14:00+24n44461 0.0 10201171
17:00+24nnw45330 0.0 10191220
20:00+19n254423 0.0 1020108
19 september, sun
sun1923:00+17n3754100 0.0 1022296
02:00+15n246493 0.0 1022131
05:00+14ene116994 0.0 102314
08:00+14e136712 0.0 1024101
11:00+20ene33455 0.0 1024882
14:00+24e22320 0.0 10221277
17:00+24e11320 0.0 10211323
20:00+18ene36590 0.0 1022198
20 september, mon
mon2023:00+16ese36610 0.0 1023166
02:00+15se25660 0.0 1023107
05:00+14sse226955 0.0 102242
08:00+15se12655 0.0 102353
11:00+22sse2340100 0.0 1023389
14:00+27s3440100 0.0 10211127
17:00+27s354568 0.0 10201287
20:00+24sse41161100 0.0 1020586
21 september, tue
tue2123:00+22s51363100 0.0 1021727
02:00+21s51463100 0.0 1022731
05:00+21s61460100 0.0 1021687
08:00+20s61466100 0.0 1021563
11:00+20s61367100 0.0 1021580
14:00+20s51169100 0.1 1021788
17:00+20s61173100 0.2 1019817
20:00+18sse41286100 0.9 1018704
22 september, wed
wed2223:00+19s51384100 0.3 1016806
02:00+20s51377100 0.3 10131072
05:00+19s71594100 3.2 10111066
08:00+18ssw61496100 10.6 10101027
11:00+15wnw5895100 5.4 1011525
14:00+14wnw4891100 9.5 1013647
17:00+13nw4784100 0.6 10141051
20:00+12nw5875100 0.6 10171187